Regional Weather Roundup
Issued by NWS

Home | Current Version | Previous Version | Graphics & Text | Print | Product List | Glossary On
Versions: 1 2 3 4 5 6 7 8 9 10 11 12 13 14 15 16 17 18 19 20 21 22 23 24 25 26 27 28 29 30 31 32 33 34 35 36 37 38 39 40 41 42 43 44 45 46 47 48 49 50
000
ASUS43 KFSD 241902
RWRSD

WEATHER ROUNDUP FOR SOUTH DAKOTA
NATIONAL WEATHER SERVICE SIOUX FALLS SD
200 PM CDT MON APR 24 2017

NOTE: "FAIR" INDICATES FEW OR NO CLOUDS BELOW 12,000 FEET WITH NO
SIGNIFICANT WEATHER AND/OR OBSTRUCTIONS TO VISIBILITY.


SDZ001>005-009-010-012>017-242000-
NORTHWEST AND NORTH CENTRAL SOUTH DAKOTA

CITY           SKY/WX    TMP DP  RH WIND       PRES   REMARKS
BUFFALO          N/A     51  40  65 NW13G22   29.54F
FAITH            N/A     52  42  69 NW14G21   29.59F
MOBRIDGE       CLOUDY    45  34  65 N16       29.56F
$$

SDZ012>016-024>037-041>051-057-063-072>074-242000-
SOUTHWEST AND SOUTH CENTRAL SOUTH DAKOTA

CITY           SKY/WX    TMP DP  RH WIND       PRES   REMARKS
RAPID CTY ARPT SUNNY     58  43  57 N25G35    29.58F
PIERRE         CLOUDY    44  36  73 NW14      29.59S
CUSTER         CLOUDY    56  27  32 W13       29.60F
ELLSWORTH AFB  SUNNY     57  42  57 N24G32    29.59F
PHILIP         PTSUNNY   53  40  61 NW14G20   29.61F
PINE RIDGE     MOSUNNY   58  42  55 VRB6      29.61F
SPEARFISH      FAIR      52  39  62 NW9G16    29.63F
WINNER         CLOUDY    47  37  68 NW20      29.60R
$$

SDZ004>011-016>023-039-040-242000-
NORTHEAST SOUTH DAKOTA

CITY           SKY/WX    TMP DP  RH WIND       PRES   REMARKS
ABERDEEN       CLOUDY    50  37  61 NW15      29.53R
WATERTOWN      PTSUNNY   62  40  44 S15       29.49
BROOKINGS      CLOUDY    60  40  47 SW20G28   29.54F
SISSETON         N/A     62  41  46 S13       29.47F
$$

SDZ017-020-022-023-036>040-048>070-242000-
SOUTHEAST SOUTH DAKOTA

CITY           SKY/WX    TMP DP  RH WIND       PRES   REMARKS
SIOUX FALLS    CLOUDY    59  45  59 SW10      29.56F
HURON          CLOUDY    59  43  55 NW20G28   29.51R
CHAMBERLAIN    CLOUDY    50  41  71 W14G22    29.58R
MITCHELL       MOSUNNY   64  44  48 W17G24    29.52S
YANKTON        CLOUDY    61  45  55 CALM      29.54F
$$

ABBREVIATIONS USED IN REMARKS
   TC - TEMPERATURE IN CELSIUS
  WCI - WIND CHILL INDEX
   HX - HEAT INDEX
  VSB - VISIBILITY





USA.gov is the U.S. government's official web portal to all federal, state and local government web resources and services.